sat.trackr.live / text

‹ back to catalog

STARLINK-34944

NORAD 65182 · 2025-175J

PAYLOAD ACTIVE UNKNOWN

§ Identity

Operator
Country
US
Launch date
2025-08-14
Launch site
AFWTR
Launch vehicle
Mass (kg)
RCS (m²)

Purposes: comms

External: N2YO · Heavens-Above · Gunter

§ Orbital elements

Epoch: 2026-05-25T03:33:57.871008Z

Period
95.64 min
Inclination
97.4489°
Eccentricity
0.0001959
Mean motion
15.05643285 rev/d
Perigee alt
548.2 km
Apogee alt
550.9 km
Semi-major
6,927.7 km
B*
1.3257e-3
RAAN
17.6171°
Arg perigee
87.1644°
Mean anomaly
272.9808°
Rev number
4,414

§ Raw data

STARLINK-349441 65182U 25175J   26145.14858647  .00019118  00000+0  13257-2 0  99922 65182  97.4489  17.6171 0001959  87.1644 272.9808 15.05643285 44140

JSON: /api/v1/satellites/65182 · /tle

For live sub-satellite position, see the globe view (requires WebGL).

§ Visibility from observer

Set your observer location to see the next 7 days of passes ≥ 10°. The values pass through the URL so the page stays shareable.

No JS? Fill the form by hand. The geolocation button needs JavaScript.